| time (UTC) | temp C | wind direction | speed KPH | gust KPH | rain 1hr cm | rain 24hr cm | rain mn cm | humidity % | barometer mb |
| 20260504034536 | 22 | 103 | 8.0 | 16.1 | 0.00 | 0.00 | 0.00 | 70 | 1018.0 |
| 20260504033043 | 22 | 80 | 6.4 | 17.7 | 0.00 | 0.00 | 0.00 | 69 | 1017.9 |
| 20260504031546 | 22 | 115 | 6.4 | 12.9 | 0.00 | 0.00 | 0.00 | 68 | 1017.9 |
| 20260504030043 | 22 | 94 | 8.0 | 17.7 | 0.00 | 0.00 | 0.00 | 67 | 1017.7 |
| 20260504024537 | 23 | 103 | 4.8 | 17.7 | 0.00 | 0.00 | 0.00 | 66 | 1017.6 |
| 20260504023034 | 23 | 111 | 8.0 | 22.5 | 0.00 | 0.00 | 0.00 | 65 | 1017.4 |
| 20260504021534 | 23 | 109 | 8.0 | 22.5 | 0.00 | 0.00 | 0.00 | 63 | 1017.2 |
| 20260504020042 | 23 | 95 | 8.0 | 16.1 | 0.00 | 0.00 | 0.00 | 62 | 1017.0 |
| 20260504014553 | 23 | 106 | 9.7 | 17.7 | 0.00 | 0.00 | 0.00 | 60 | 1016.8 |
| 20260504013041 | 24 | 116 | 4.8 | 12.9 | 0.00 | 0.00 | 0.00 | 59 | 1016.7 |
| 20260504011533 | 24 | 109 | 6.4 | 16.1 | 0.00 | 0.00 | 0.00 | 57 | 1016.5 |
| 20260504010035 | 25 | 94 | 6.4 | 14.5 | 0.00 | 0.00 | 0.00 | 56 | 1016.6 |
| 20260504004540 | 25 | 112 | 6.4 | 17.7 | 0.00 | 0.00 | 0.00 | 55 | 1016.6 |
| 20260504003043 | 26 | 106 | 11.3 | 17.7 | 0.00 | 0.00 | 0.00 | 54 | 1016.3 |
| 20260504001547 | 26 | 53 | 6.4 | 14.5 | 0.00 | 0.00 | 0.00 | 52 | 1016.4 |
| 20260504000044 | 27 | 110 | 9.7 | 19.3 | 0.00 | 0.00 | 0.00 | 52 | 1016.2 |
| 20260503234541 | 27 | 128 | 14.5 | 22.5 | 0.00 | 0.00 | 0.00 | 51 | 1016.2 |
| 20260503233050 | 27 | 97 | 6.4 | 20.9 | 0.00 | 0.00 | 0.00 | 50 | 1016.2 |
| 20260503231544 | 27 | 105 | 6.4 | 22.5 | 0.00 | 0.00 | 0.00 | 50 | 1016.4 |
| 20260503230040 | 28 | 73 | 4.8 | 16.1 | 0.00 | 0.00 | 0.00 | 49 | 1016.5 |
| 20260503224542 | 28 | 109 | 8.0 | 17.7 | 0.00 | 0.00 | 0.00 | 49 | 1016.6 |
| 20260503223035 | 27 | 80 | 8.0 | 19.3 | 0.00 | 0.00 | 0.00 | 49 | 1016.7 |
| 20260503221550 | 28 | 88 | 9.7 | 20.9 | 0.00 | 0.00 | 0.00 | 47 | 1016.9 |
| 20260503220047 | 28 | 95 | 6.4 | 20.9 | 0.00 | 0.00 | 0.00 | 47 | 1017.2 |
| 20260503214538 | 28 | 98 | 6.4 | 17.7 | 0.00 | 0.00 | 0.00 | 47 | 1017.3 |
| 20260503213039 | 28 | 67 | 4.8 | 17.7 | 0.00 | 0.00 | 0.00 | 46 | 1017.9 |
| 20260503211540 | 28 | 31 | 6.4 | 25.7 | 0.00 | 0.00 | 0.00 | 45 | 1017.7 |
| 20260503210048 | 28 | 88 | 6.4 | 16.1 | 0.00 | 0.00 | 0.00 | 45 | 1018.0 |
| 20260503204557 | 28 | 87 | 6.4 | 22.5 | 0.00 | 0.00 | 0.00 | 46 | 1018.3 |
| 20260503203038 | 28 | 119 | 6.4 | 14.5 | 0.00 | 0.00 | 0.00 | 46 | 1018.5 |
| 20260503201539 | 28 | 117 | 3.2 | 19.3 | 0.00 | 0.00 | 0.00 | 46 | 1019.0 |
| 20260503200044 | 27 | 110 | 4.8 | 14.5 | 0.00 | 0.00 | 0.00 | 48 | 1019.5 |
| 20260503194545 | 27 | 91 | 6.4 | 16.1 | 0.00 | 0.00 | 0.00 | 48 | 1019.9 |
| 20260503193042 | 26 | 28 | 11.3 | 19.3 | 0.00 | 0.00 | 0.00 | 49 | 1020.0 |
| 20260503191538 | 27 | 151 | 8.0 | 16.1 | 0.00 | 0.00 | 0.00 | 48 | 1020.2 |
| 20260503190046 | 27 | 163 | 11.3 | 19.3 | 0.00 | 0.00 | 0.00 | 47 | 1020.4 |
| 20260503184537 | 28 | 0 | 4.8 | 19.3 | 0.00 | 0.00 | 0.00 | 47 | 1020.6 |
| 20260503183051 | 27 | 92 | 4.8 | 16.1 | 0.00 | 0.00 | 0.00 | 47 | 1021.0 |
| 20260503181542 | 27 | 119 | 9.7 | 17.7 | 0.00 | 0.00 | 0.00 | 48 | 1021.3 |
| 20260503180044 | 27 | 52 | 3.2 | 19.3 | 0.00 | 0.00 | 0.00 | 50 | 1021.5 |
| 20260503174540 | 27 | 68 | 6.4 | 16.1 | 0.00 | 0.00 | 0.00 | 49 | 1021.6 |
| 20260503173101 | 26 | 79 | 4.8 | 20.9 | 0.00 | 0.00 | 0.00 | 51 | 1022.0 |
| 20260503171546 | 26 | 104 | 8.0 | 19.3 | 0.00 | 0.00 | 0.00 | 52 | 1022.3 |
| 20260503081551 | 17 | 0 | 0.0 | 0.0 | 0.00 | 0.03 | 0.00 | 78 | 1021.1 |
| 20260503071541 | 18 | 0 | 0.0 | 1.6 | 0.00 | 0.03 | 0.00 | 75 | 1021.3 |
| 20260503054540 | 20 | 0 | 0.0 | 0.0 | 0.00 | 0.03 | 0.00 | 70 | 1022.0 |
| 20260503053041 | 20 | 0 | 0.0 | 3.2 | 0.00 | 0.03 | 0.00 | 68 | 1022.1 |
| 20260503051540 | 20 | 95 | 1.6 | 6.4 | 0.00 | 0.03 | 0.00 | 68 | 1022.0 |
| 20260503050040 | 19 | 0 | 0.0 | 3.2 | 0.00 | 0.03 | 0.00 | 69 | 1022.0 |
| 20260503044541 | 19 | 0 | 0.0 | 3.2 | 0.00 | 0.03 | 0.03 | 70 | 1022.1 |
| 20260503043042 | 19 | 0 | 0.0 | 3.2 | 0.00 | 0.03 | 0.03 | 70 | 1021.9 |
| 20260503041543 | 19 | 0 | 0.0 | 1.6 | 0.00 | 0.03 | 0.03 | 70 | 1021.7 |
| 20260503040042 | 19 | 0 | 0.0 | 3.2 | 0.00 | 0.03 | 0.03 | 70 | 1021.5 |